Location: Beaver Brook Station
(42.3793°N, 71.2203°W)
Time: 02:09:17
(UTC+00:00)

Cosmos 1939 Rocket - Pass Details

Date: 29 October 2020
Orbit: 533 x 583 km, 97.4° (Epoch: 05 December)

Event Time Altitude Azimuth Distance (km) Brightness Sun altitude
Rises 23:16:47 0° 181° (S) 2,729 6.4 -18.1°
Reaches altitude 10° 23:18:59 10° 187° (S) 1,830 5.6 -18.5°
Maximum altitude 23:22:47 45° 261° (W) 751 3.9 -19.2°
Drops below altitude 10° 23:26:34 10° 335° (NNW) 1,817 5.7 -19.9°
Sets 23:28:45 0° 342° (NNW) 2,708 6.6 -20.3°
